#timestamp,LO_Frequency,Hit 
1504101615.4,286047003.5,N
1504101635.2,286047006.5,N
1504101655.1,286047009.0,N
1504101656.0,286047009.0,N
1504101675.8,286047008.5,N
1504101695.6,286047010.1,N
1504101715.5,286047008.0,N
1504101735.3,286047010.4,P
1504101755.1,286047004.4,P
1504101775.9,286047005.4,N
1504101795.7,286047009.2,P
1504101815.6,286046998.1,N
1504101835.4,286046996.1,N
1504101855.3,286046996.3,N
1504101875.1,286046998.9,N
1504101895.8,286046997.5,N
1504101915.7,286046996.4,N
1504101935.6,286046993.4,N
1504101955.4,286046991.9,N
1504101975.2,286046994.3,N
1504101995.1,286046996.3,N
1504101996.0,286046996.3,N
1504102015.8,286046995.8,N
1504102035.6,286046995.2,N
1504102055.5,286046995.7,N
1504102075.3,286046994.3,N
1504102095.1,286046989.3,N
1504102115.9,286046985.3,P
1504102135.7,286046990.6,N
1504102155.5,286046993.2,N
1504102175.4,286046994.7,N
1504102195.2,286046993.4,N
1504102215.0,286046994.6,N
1504102215.9,286046994.6,N
1504102235.8,286046993.4,N
1504102255.6,286046992.9,N
1504102275.4,286046992.5,N
1504102295.3,286046992.0,N
1504102315.1,286046991.7,P
1504102316.0,286046991.7,P
1504102335.8,286047000.4,N
1504102355.7,286046998.2,N
1504102375.5,286046999.6,N
1504102395.3,286046998.8,N
1504102415.2,286046996.5,N
1504102435.9,286046995.5,N
1504102455.7,286046996.1,N
1504102475.6,286046997.0,N
1504102495.4,286046994.1,N
1504102515.2,286046997.5,N
1504102535.0,286046997.8,N
1504102536.0,286046997.8,N
1504102555.8,286046993.4,N
1504102575.6,286046998.0,N
1504102595.4,286046999.6,N
1504102615.3,286046995.9,N
1504102635.1,286046995.1,N
1504102655.8,286046997.1,N
1504102675.7,286046997.9,N
1504102695.5,286046995.6,N
1504102715.3,286046997.6,N
1504102735.2,286046997.7,N
1504102755.9,286046993.7,N
1504102775.7,286046994.7,N
1504102795.6,286046995.3,N
1504102815.4,286046996.6,N
1504102835.2,286046996.0,N
1504102855.0,286046994.0,N
1504102855.9,286046994.0,N
1504102875.8,286046997.4,N
1504102895.6,286046997.6,N
1504102915.4,286046997.0,N
1504102935.3,286047000.5,N
1504102955.1,286047000.9,N
1504102975.8,286046999.9,N
1504102995.7,286046998.7,N
1504103015.5,286047001.2,N
1504103035.3,286046999.1,N
1504103055.2,286047002.8,N
1504103075.9,286047000.5,N
1504103095.7,286047002.4,N
1504103115.6,286047000.8,N
1504103135.4,286047001.8,N
1504103155.2,286047001.7,N
1504103175.1,286047002.7,N
1504103176.0,286047002.7,N
1504103195.8,286047003.7,N
1504103215.6,286047006.5,N
1504103235.5,286047009.9,P
1504103255.3,286047013.3,N
1504103275.1,286047010.9,N
1504103295.9,286047014.3,N
1504103315.7,286047015.1,N
1504103335.5,286047014.7,N
1504103355.3,286047015.3,N
1504103375.2,286047011.3,N
1504103395.0,286047013.6,N
1504103395.9,286047013.6,N
1504103415.7,286047011.0,N
1504103435.6,286047013.1,P
1504103455.4,286047001.9,N
1504103475.3,286047003.8,N
1504103495.1,286047007.6,N
1504103496.0,286047007.6,N
1504103515.8,286047005.7,N
1504103535.6,286047005.6,N
1504103555.5,286047005.1,N
1504103575.3,286047005.0,N
1504103595.1,286047007.3,N
1504103615.9,286047005.7,N
1504103635.7,286047003.2,N
1504103655.5,286047003.6,N
1504103675.4,286047001.8,N
1504103695.2,286047001.9,N
1504103715.0,286046999.9,N
1504103715.9,286046999.9,N
1504103735.8,286047003.9,N
1504103755.6,286047005.3,N
1504103775.4,286047005.9,N
1504103795.3,286047009.0,N
1504103815.1,286047007.7,N
1504103816.0,286047007.7,N
1504103835.8,286047008.3,N
1504103855.7,286047011.5,P
1504103875.5,286047005.0,N
1504103895.3,286047007.6,N
1504103915.3,286047007.5,N
1504103935.2,286047003.5,N
1504103955.9,286047003.8,N
1504103975.7,286047001.5,N
1504103995.6,286047002.3,N
1504104015.4,286047003.4,N
1504104035.2,286047005.1,N
1504104055.1,286047007.1,N
1504104056.0,286047007.1,N
1504104075.8,286047006.2,N
1504104095.6,286047007.9,P
1504104115.5,286047003.6,N
1504104135.3,286047002.4,N
1504104155.1,286047000.4,N
1504104175.9,286046999.7,N
1504104195.7,286047001.7,N
1504104215.5,286047002.0,N
1504104235.3,286047002.8,N
1504104255.2,286047000.9,N
1504104275.0,286046999.1,N
1504104275.9,286046999.1,N
1504104295.7,286046998.7,N
1504104315.6,286047000.5,N
1504104335.4,286047002.7,N
1504104355.2,286047003.7,N
1504104375.1,286047005.1,N
1504104376.0,286047005.1,N
1504104395.8,286047001.5,N
1504104415.6,286047002.0,N
1504104435.5,286046998.1,N
1504104455.3,286046997.3,N
1504104475.1,286046996.1,N
1504104495.9,286046990.8,P
1504104515.7,286046985.6,N
1504104535.5,286046989.8,N
1504104555.4,286046988.2,N
1504104575.2,286046989.8,N
1504104595.0,286046986.1,N
1504104595.9,286046986.1,N
1504104615.8,286046986.9,N
1504104635.6,286046990.0,N
1504104655.4,286046988.6,N
1504104675.3,286046986.0,P
1504104695.1,286046994.0,P
1504104696.0,286046994.0,N
1504104715.8,286046993.6,N
1504104735.7,286046992.6,N
1504104755.5,286046992.7,N
1504104775.3,286046992.7,N
1504104795.1,286046995.0,N
1504104815.9,286046994.7,N
1504104835.7,286046991.6,P
1504104855.6,286046996.4,P
1504104875.4,286046992.6,P
1504104895.2,286046990.6,P
1504104915.1,286046997.9,N
1504104916.0,286046997.9,N
1504104935.8,286046995.4,N
1504104955.6,286046994.9,N
1504104975.5,286046992.3,P
1504104995.3,286046999.3,N
1504105015.1,286047000.9,N
1504105035.9,286046999.1,N
1504105055.7,286046996.5,N
1504105075.5,286046995.0,N
1504105095.4,286046997.7,N
1504105115.2,286046997.8,N
1504105135.0,286046999.5,N
1504105135.9,286046999.5,N
1504105155.8,286047001.8,N
1504105175.6,286047005.3,N
1504105195.4,286047007.2,N
